This demonstration page uses our WeatherBlox Daily Observations layout. Learn more.

Left ArrowRight Arrow

39.12711, -84.51439

Hourly Observations for September 15, 2016

Temp ( °F °C ) Dew Point ( °F °C ) Humidity (%) Winds ( mph kmh ) Pressure ( in mb ) Visibility ( mi km ) Precip ( " mm )
12:53 am 00:53 Clear 66 18.9 65 18.3 96 96 NE 5 7 30.19 1022 10 16 0.00 0.00
1:53 am 01:53 Clear 65 18.3 65 18.3 100 100 NE 3 6 30.19 1022 10 16 0.00 0.00
2:53 am 02:53 Clear 64 17.8 64 17.8 100 100 NNE 3 6 30.19 1023 10 16 0.00 0.00
3:53 am 03:53 Partly Cloudy 63 17.2 63 17.2 100 100 NE 3 6 30.18 1022 10 16 0.00 0.00
4:53 am 04:53 Mostly Clear 63 17.2 63 17.2 100 100 Calm 30.18 1022 10 16 0.00 0.00
5:53 am 05:53 Clear 61 16.1 61 16.1 100 100 Calm 30.19 1022 8 13 0.00 0.00
6:53 am 06:53 Clear 61 16.1 61 16.1 100 100 NE 5 7 30.20 1023 10 16 0.00 0.00
7:53 am 07:53 Sunny 61 16.1 61 16.1 100 100 ENE 3 6 30.21 1023 10 16 0.00 0.00
8:53 am 08:53 Sunny 65 18.3 61 16.1 87 87 NE 8 13 30.22 1023 10 16 0.00 0.00
9:53 am 09:53 Sunny 66 18.9 62 16.7 87 87 NNE 7 11 30.22 1023 10 16 0.00 0.00
10:53 am 10:53 Sunny 69 20.6 63 17.2 81 81 NE 6 9 30.22 1023 10 16 0.00 0.00
11:53 am 11:53 Sunny 72 22.2 64 17.8 76 76 E 3 6 30.21 1023 10 16 0.00 0.00
12:53 pm 12:53 Sunny 75 23.9 66 18.9 74 74 ENE 5 7 30.19 1023 10 16 0.00 0.00
1:53 pm 13:53 Sunny 78 25.6 66 18.9 67 67 NNE 6 9 30.17 1022 10 16 0.00 0.00
2:53 pm 14:53 Partly Cloudy 80 26.7 66 18.9 62 62 VRB 6 9 30.15 1021 10 16 0.00 0.00
3:53 pm 15:53 Partly Cloudy 80 26.7 66 18.9 62 62 NE 7 11 30.12 1020 10 16 0.00 0.00
4:53 pm 16:53 Partly Cloudy 81 27.2 66 18.9 61 61 NE 6 9 30.11 1020 10 16 0.00 0.00
5:53 pm 17:53 Partly Cloudy 80 26.7 66 18.9 62 62 NNE 6 9 30.11 1020 10 16 0.00 0.00
6:53 pm 18:53 Mostly Sunny 78 25.6 66 18.9 67 67 NE 5 7 30.11 1020 10 16 0.00 0.00
7:53 pm 19:53 Clear 72 22.2 68 20 87 87 Calm 30.12 1020 10 16 0.00 0.00
8:53 pm 20:53 Clear 70 21.1 67 19.4 90 90 Calm 30.13 1020 10 16 0.00 0.00
9:53 pm 21:53 Clear 67 19.4 66 18.9 97 97 NE 3 6 30.14 1021 10 16 0.00 0.00
10:53 pm 22:53 Clear 64 17.8 64 17.8 100 100 Calm 30.14 1021 10 16 0.00 0.00
11:53 pm 23:53 Clear 63 17.2 63 17.2 100 100 Calm 30.14 1021 10 16 0.00 0.00

Powered by AerisWeather